TimeEST,TemperatureF,Dew PointF,Humidity,Sea Level PressureIn,VisibilityMPH,Wind Direction,Wind SpeedMPH,Gust SpeedMPH,PrecipitationIn,Events,Conditions,WindDirDegrees,DateUTC
12:15 AM,9.3,4.1,79,30.31,10.0,SE,3.5,-,N/A,,Clear,140,2014-01-04 05:15:00
12:35 AM,10.2,5.0,79,30.30,10.0,Calm,Calm,-,N/A,,Clear,0,2014-01-04 05:35:00
12:55 AM,10.6,5.4,79,30.30,10.0,Calm,Calm,-,N/A,,Clear,0,2014-01-04 05:55:00
1:15 AM,10.4,4.6,78,30.29,10.0,SSE,3.5,-,N/A,,Clear,160,2014-01-04 06:15:00
1:35 AM,10.2,4.8,79,30.29,10.0,SSE,3.5,-,N/A,,Clear,150,2014-01-04 06:35:00
1:55 AM,10.4,4.8,78,30.29,10.0,Calm,Calm,-,N/A,,Clear,0,2014-01-04 06:55:00
2:15 AM,10.8,4.8,77,30.28,10.0,Calm,Calm,-,N/A,,Clear,0,2014-01-04 07:15:00
2:35 AM,10.9,5.2,78,30.28,10.0,Calm,Calm,-,N/A,,Clear,0,2014-01-04 07:35:00
2:55 AM,10.2,5.7,82,30.28,10.0,Calm,Calm,-,N/A,,Clear,0,2014-01-04 07:55:00
3:15 AM,9.3,4.8,82,30.28,10.0,Calm,Calm,-,N/A,,Clear,0,2014-01-04 08:15:00
3:35 AM,9.5,5.0,82,30.27,10.0,Calm,Calm,-,N/A,,Clear,0,2014-01-04 08:35:00
3:55 AM,10.0,5.7,83,30.26,10.0,Calm,Calm,-,N/A,,Clear,0,2014-01-04 08:55:00
4:15 AM,10.4,5.0,79,30.26,10.0,Calm,Calm,-,N/A,,Clear,0,2014-01-04 09:15:00
4:35 AM,10.4,4.8,78,30.27,10.0,Calm,Calm,-,N/A,,Clear,0,2014-01-04 09:35:00
4:55 AM,9.9,4.8,80,30.26,10.0,Calm,Calm,-,N/A,,Clear,0,2014-01-04 09:55:00
5:15 AM,9.5,4.6,81,30.26,10.0,Calm,Calm,-,N/A,,Clear,0,2014-01-04 10:15:00
5:35 AM,9.3,4.8,82,30.27,10.0,Calm,Calm,-,N/A,,Clear,0,2014-01-04 10:35:00
5:55 AM,7.7,4.1,85,30.26,10.0,Calm,Calm,-,N/A,,Clear,0,2014-01-04 10:55:00
6:15 AM,7.3,3.7,85,30.27,10.0,Calm,Calm,-,N/A,,Clear,0,2014-01-04 11:15:00
6:35 AM,7.7,4.1,85,30.27,10.0,Calm,Calm,-,N/A,,Clear,0,2014-01-04 11:35:00
6:55 AM,9.5,5.5,84,30.27,10.0,Calm,Calm,-,N/A,,Clear,0,2014-01-04 11:55:00
7:15 AM,9.7,5.0,81,30.26,10.0,Calm,Calm,-,N/A,,Clear,0,2014-01-04 12:15:00
7:35 AM,10.0,5.0,80,30.26,10.0,Calm,Calm,-,N/A,,Clear,0,2014-01-04 12:35:00
7:55 AM,10.6,5.0,78,30.26,10.0,Calm,Calm,-,N/A,,Clear,0,2014-01-04 12:55:00
8:15 AM,11.3,5.4,77,30.26,10.0,Calm,Calm,-,N/A,,Clear,0,2014-01-04 13:15:00
8:35 AM,11.8,5.2,75,30.26,10.0,Calm,Calm,-,N/A,,Clear,0,2014-01-04 13:35:00
8:55 AM,11.7,6.1,78,30.27,10.0,Calm,Calm,-,N/A,,Clear,0,2014-01-04 13:55:00
9:15 AM,16.7,7.7,68,30.26,10.0,South,4.6,-,N/A,,Clear,170,2014-01-04 14:15:00
9:35 AM,18.7,8.4,64,30.26,10.0,South,3.5,-,N/A,,Clear,180,2014-01-04 14:35:00
9:55 AM,20.1,8.1,60,30.26,10.0,South,5.8,-,N/A,,Clear,190,2014-01-04 14:55:00
10:15 AM,21.2,8.1,57,30.25,10.0,SSW,5.8,-,N/A,,Clear,200,2014-01-04 15:15:00
10:35 AM,23.5,9.3,55,30.25,10.0,South,5.8,-,N/A,,Clear,190,2014-01-04 15:35:00
10:55 AM,25.5,10.4,53,30.24,10.0,South,4.6,-,N/A,,Clear,180,2014-01-04 15:55:00
11:15 AM,27.1,10.2,49,30.23,10.0,South,4.6,-,N/A,,Clear,190,2014-01-04 16:15:00
11:35 AM,28.6,10.4,47,30.21,10.0,South,5.8,-,N/A,,Clear,180,2014-01-04 16:35:00
11:55 AM,30.9,10.6,43,30.19,10.0,South,8.1,-,N/A,,Clear,190,2014-01-04 16:55:00
12:15 PM,32.0,11.7,43,30.18,10.0,South,6.9,-,N/A,,Clear,180,2014-01-04 17:15:00
12:35 PM,32.0,10.8,41,30.17,10.0,South,9.2,-,N/A,,Clear,190,2014-01-04 17:35:00
12:55 PM,33.3,12.4,42,30.16,10.0,South,9.2,-,N/A,,Clear,190,2014-01-04 17:55:00
1:15 PM,35.1,13.6,41,30.15,10.0,South,9.2,-,N/A,,Clear,190,2014-01-04 18:15:00
1:35 PM,36.1,13.6,40,30.14,10.0,South,8.1,-,N/A,,Clear,170,2014-01-04 18:35:00
1:55 PM,36.9,14.9,41,30.13,10.0,South,6.9,-,N/A,,Clear,180,2014-01-04 18:55:00
2:15 PM,36.9,15.3,41,30.13,10.0,South,5.8,-,N/A,,Clear,180,2014-01-04 19:15:00
2:35 PM,37.0,13.5,38,30.13,10.0,South,9.2,-,N/A,,Clear,190,2014-01-04 19:35:00
2:55 PM,37.0,12.6,37,30.12,10.0,South,8.1,-,N/A,,Clear,190,2014-01-04 19:55:00
3:15 PM,37.2,13.1,37,30.11,10.0,South,8.1,-,N/A,,Clear,180,2014-01-04 20:15:00
3:35 PM,37.4,13.6,38,30.11,10.0,South,5.8,-,N/A,,Clear,170,2014-01-04 20:35:00
3:55 PM,37.6,13.6,38,30.11,10.0,South,6.9,-,N/A,,Clear,180,2014-01-04 20:55:00
4:15 PM,37.6,13.6,38,30.11,10.0,South,5.8,-,N/A,,Clear,180,2014-01-04 21:15:00
4:35 PM,37.8,13.3,37,30.11,10.0,South,4.6,-,N/A,,Clear,190,2014-01-04 21:35:00
4:55 PM,37.8,14.0,38,30.10,10.0,South,4.6,-,N/A,,Clear,180,2014-01-04 21:55:00
5:15 PM,37.4,13.3,37,30.10,10.0,South,3.5,-,N/A,,Clear,190,2014-01-04 22:15:00
5:35 PM,36.5,13.3,39,30.10,10.0,Calm,Calm,-,N/A,,Clear,0,2014-01-04 22:35:00
5:55 PM,35.2,12.9,40,30.09,10.0,Calm,Calm,-,N/A,,Clear,0,2014-01-04 22:55:00
6:15 PM,30.9,16.2,54,30.09,10.0,Calm,Calm,-,N/A,,Clear,0,2014-01-04 23:15:00
6:35 PM,29.3,16.2,58,30.09,10.0,Calm,Calm,-,N/A,,Clear,0,2014-01-04 23:35:00
6:55 PM,26.6,16.5,66,30.09,10.0,South,3.5,-,N/A,,Clear,170,2014-01-04 23:55:00
7:15 PM,26.8,16.3,65,30.09,10.0,Calm,Calm,-,N/A,,Clear,0,2014-01-05 00:15:00
7:35 PM,26.1,16.5,67,30.09,10.0,Calm,Calm,-,N/A,,Clear,0,2014-01-05 00:35:00
7:55 PM,25.0,17.1,72,30.09,10.0,Calm,Calm,-,N/A,,Clear,0,2014-01-05 00:55:00
8:15 PM,25.3,17.8,73,30.09,10.0,Calm,Calm,-,N/A,,Clear,0,2014-01-05 01:15:00
8:35 PM,22.5,17.6,82,30.10,10.0,Calm,Calm,-,N/A,,Clear,0,2014-01-05 01:35:00
8:55 PM,22.6,17.8,82,30.10,10.0,Calm,Calm,-,N/A,,Clear,0,2014-01-05 01:55:00
9:15 PM,22.6,15.3,73,30.10,10.0,South,4.6,-,N/A,,Clear,170,2014-01-05 02:15:00
9:35 PM,23.0,16.3,76,30.11,10.0,WSW,3.5,-,N/A,,Clear,240,2014-01-05 02:35:00
9:55 PM,33.8,13.8,44,30.11,10.0,SSW,5.8,-,N/A,,Clear,200,2014-01-05 02:55:00
10:15 PM,33.3,13.6,44,30.12,10.0,South,3.5,-,N/A,,Clear,190,2014-01-05 03:15:00
10:35 PM,32.0,13.3,46,30.12,10.0,South,4.6,-,N/A,,Clear,180,2014-01-05 03:35:00
10:55 PM,31.3,13.6,48,30.11,10.0,South,3.5,-,N/A,,Clear,190,2014-01-05 03:55:00
11:15 PM,30.9,13.1,48,30.11,10.0,Calm,Calm,-,N/A,,Clear,0,2014-01-05 04:15:00
11:35 PM,27.9,14.0,56,30.11,10.0,South,4.6,-,N/A,,Clear,170,2014-01-05 04:35:00
11:55 PM,29.8,14.0,52,30.10,10.0,South,3.5,-,N/A,,Scattered Clouds,180,2014-01-05 04:55:00